Home > Weather > Pasadena > Past weeks

Flag for USA Weather for the Past 2 Weeks in Pasadena, Texas, USA

Now
75 °F

Mostly cloudy.


Feels Like: 74 °F
Forecast: 68 / 79 °F
Wind: 6 mph from East

Location: Houston / Ellington

Current Time: May 2, 2016 at 12:59:26 AM

Latest Report: May 1, 2016 at 11:50 PM


Visibility: 10 mi

Pressure: 29.94 "Hg

Humidity: 94%

Dew Point: 73 °F

Location of PasadenaLocation

Historic Weather in Pasadena — Graph

°F

Pasadena Temperature Yesterday

Maximum temperature yesterday: 82 °F (at 12:50 PM)
Minimum temperature yesterday: 75 °F (at 6:50 AM)
Average temperature yesterday: 78 °F

High & Low Weather Summary for the Past Weeks

 TemperatureHumidityPressure
High86 °F (Apr 29, 10:50 AM)100% (Apr 18, 8:50 AM)30.15 "Hg (Apr 18, 8:50 AM)
Low61 °F (Apr 21, 11:50 AM)32% (Apr 23, 11:50 AM)29.62 "Hg (Apr 30, 2:50 AM)
Average73 °F83%29.90 "Hg
* Reported Apr 16 11:50 PM — May 1 11:50 PM, Pasadena, Weather by CustomWeather, © 2016

Note: Actual official high and low records may vary slightly from our data, if they occured in-between our weather recording intervals... More about our weather records

Advertising

Pasadena Weather History for the Previous 24 Hours

Scroll right to see more
 ConditionsComfort  
Time TempWeatherWind HumidityBarometerVisibility
11:50 PM
Sun, May 1
75 °FMostly cloudy.6 mph94%29.94 "Hg10 mi
10:50 PM75 °FMostly cloudy.6 mph94%29.93 "Hg9 mi
9:50 PM75 °FOvercast.8 mph94%29.90 "Hg9 mi
8:50 PM75 °FOvercast.10 mph94%29.88 "Hg8 mi
7:50 PM75 °FOvercast.12 mph94%29.85 "Hg8 mi
6:50 PM75 °FLow clouds.12 mph94%29.84 "Hg7 mi
5:50 PM75 °FFog.9 mph94%29.83 "Hg5 mi
4:50 PM79 °FFog.12 mph89%29.83 "Hg3 mi
3:50 PM82 °FMostly cloudy.12 mph79%29.84 "Hg10 mi
2:50 PM82 °FMore clouds than sun.10 mph79%29.86 "Hg10 mi
1:50 PM82 °FMore clouds than sun.8 mph66%29.86 "Hg10 mi
12:50 PM82 °FMostly cloudy.8 mph79%29.86 "Hg8 mi
11:50 AM81 °FMore clouds than sun.9 mph84%29.88 "Hg10 mi
10:50 AM81 °FMostly cloudy.6 mph84%29.88 "Hg10 mi
9:50 AM79 °FMore clouds than sun.9 mph84%29.86 "Hg8 mi
8:50 AM75 °FFog.8 mph94%29.85 "Hg5 mi
7:50 AM75 °FFog.12 mph94%29.82 "Hg4 mi
6:50 AM75 °FFog.7 mph94%29.80 "Hg5 mi
5:50 AM77 °FFog.3 mph94%29.80 "Hg5 mi
3:50 AM77 °FFog.No wind94%29.79 "Hg6 mi
1:50 AM77 °FFog.3 mph94%29.81 "Hg5 mi
Weather by CustomWeather, © 2016

See weather overviewHow to use our weather pages